Meadville, PA

3:37 AM EDT on March 30, 2017 (GMT -0400)
Port Meadville

Weather History for KGKJ - March, 2013

Change the Weather History Date:

Tuesday, March 12, 2013

  Actual Average Record
Temperature  
Mean Temperature 38 °F -  
Max Temperature 43 °F 42 °F 72 °F (1977)
Min Temperature 30 °F 22 °F -5 °F (1984)
Degree Days  
Heating Degree Days 27    
Moisture  
Dew Point 30 °F    
Average Humidity 77    
Maximum Humidity 93    
Minimum Humidity 67    
Precipitation  
Precipitation 0.14 in - - ()
Sea Level Pressure  
Sea Level Pressure 29.85 in    
Wind  
Wind Speed 9 mph (WSW)    
Max Wind Speed 15 mph    
Max Gust Speed 22 mph    
Visibility 9 miles    
Events Rain , Snow    
Averages and records for this station are not official NWS values.
T = Trace of Precipitation, MM = Missing Value Source: NWS Daily Summary

Daily Weather History Graph

Daily Weather History Graph

Search for Another Location

Airport or City:

Trip Planner

Search our weather history database for the weather conditions in past years. The results will help you decide how hot, cold, wet, or windy it might be!

Date:

Astronomy

Mar. 12, 2013 Rise Set
Actual Time 7:37 AM EDT 7:24 PM EDT
Civil Twilight 7:09 AM EDT 7:52 PM EDT
Nautical Twilight 6:37 AM EDT 8:24 PM EDT
Astronomical Twilight 6:04 AM EDT 8:56 PM EDT
Moon 7:41 AM EDT (3/12) 8:39 PM EDT (3/12)
Length of Visible Light 12h 42m
Length of Day
11h 47m
New Moon, 1% of the Moon is Illuminated
Mar 12
New Moon
Mar 19
First Quarter
Mar 27
Full
Apr 3
Last Quarter
Apr 10
New

Hourly Weather History & Observations

Time (EDT) Temp. Windchill Dew Point Humidity Pressure Visibility Wind Dir Wind Speed Gust Speed Precip Events Conditions
12:41 AM 44.6 °F 39.2 °F 39.2 °F 81% 29.74 in 6.0 mi WSW 10.4 mph - 0.01 in Rain Light Rain
12:53 AM 43.0 °F 37.2 °F 39.0 °F 86% 29.75 in 2.5 mi WSW 10.4 mph - 0.04 in Rain Rain
1:10 AM 42.8 °F 36.6 °F 37.4 °F 81% 29.75 in 3.0 mi WSW 11.5 mph 20.7 mph 0.03 in Rain Light Rain
1:50 AM 42.8 °F 38.6 °F 37.4 °F 81% 29.75 in 6.0 mi WSW 6.9 mph - 0.07 in Rain Light Rain
1:53 AM 42.1 °F 36.6 °F 37.9 °F 85% 29.75 in 6.0 mi WSW 9.2 mph - 0.07 in Rain Light Rain
2:16 AM 41.0 °F 36.4 °F 35.6 °F 81% 29.76 in 9.0 mi WSW 6.9 mph - 0.00 in Rain Light Rain
2:44 AM 39.2 °F 37.0 °F 37.4 °F 93% 29.76 in 7.0 mi SW 3.5 mph - 0.02 in Rain Light Rain
2:53 AM 39.9 °F 36.7 °F 36.0 °F 86% 29.76 in 10.0 mi WSW 4.6 mph - 0.02 in   Overcast
3:18 AM 39.2 °F 35.9 °F 35.6 °F 87% 29.77 in 9.0 mi SW 4.6 mph - N/A   Overcast
3:53 AM 39.0 °F 33.4 °F 35.1 °F 86% 29.78 in 9.0 mi NW 8.1 mph - 0.01 in   Overcast
4:02 AM 37.4 °F 31.4 °F 35.6 °F 93% 29.78 in 7.0 mi NW 8.1 mph - N/A   Overcast
4:15 AM 37.4 °F 32.8 °F 33.8 °F 87% 29.78 in 7.0 mi NW 5.8 mph - N/A   Overcast
4:53 AM 37.0 °F 34.5 °F 33.1 °F 86% 29.79 in 7.0 mi WNW 3.5 mph - N/A   Overcast
5:53 AM 37.0 °F 31.0 °F 33.1 °F 86% 29.80 in 8.0 mi WSW 8.1 mph - N/A   Overcast
6:53 AM 36.0 °F 29.0 °F 28.9 °F 76% 29.83 in 10.0 mi WSW 9.2 mph - N/A   Overcast
7:53 AM 36.0 °F 31.1 °F 28.9 °F 76% 29.84 in 10.0 mi SW 5.8 mph - N/A   Overcast
8:14 AM 35.6 °F 29.9 °F 28.4 °F 75% 29.82 in 10.0 mi WSW 6.9 mph - N/A   Overcast
8:53 AM 36.0 °F 30.3 °F 28.9 °F 76% 29.85 in 10.0 mi SW 6.9 mph - N/A   Overcast
9:53 AM 36.0 °F 31.1 °F 30.0 °F 79% 29.86 in 10.0 mi Variable 5.8 mph - N/A   Overcast
10:53 AM 36.0 °F 28.5 °F 28.9 °F 76% 29.87 in 10.0 mi WSW 10.4 mph 17.3 mph N/A   Overcast
11:53 AM 36.0 °F 28.0 °F 28.0 °F 73% 29.88 in 10.0 mi SW 11.5 mph 20.7 mph N/A   Overcast
12:53 PM 36.0 °F 27.1 °F 28.0 °F 73% 29.87 in 10.0 mi WSW 13.8 mph 18.4 mph N/A   Overcast
1:53 PM 36.0 °F 27.1 °F 28.0 °F 73% 29.88 in 10.0 mi WSW 13.8 mph 21.9 mph N/A   Overcast
2:53 PM 37.0 °F 29.8 °F 28.9 °F 73% 29.87 in 10.0 mi WSW 10.4 mph - N/A   Overcast
3:43 PM 37.4 °F 28.5 °F 28.4 °F 70% 29.85 in 10.0 mi WSW 15.0 mph 21.9 mph N/A   Overcast
3:53 PM 36.0 °F 29.0 °F 28.0 °F 73% 29.88 in 10.0 mi WSW 9.2 mph 18.4 mph N/A   Overcast
4:12 PM 35.6 °F 26.2 °F 28.4 °F 75% 29.86 in 9.0 mi West 15.0 mph 21.9 mph 0.00 in   Overcast
4:31 PM 35.6 °F 28.0 °F 26.6 °F 70% 29.86 in 10.0 mi WSW 10.4 mph 21.9 mph 0.00 in   Overcast
4:53 PM 36.0 °F 28.5 °F 27.0 °F 70% 29.90 in 10.0 mi WSW 10.4 mph 18.4 mph 0.00 in   Overcast
5:01 PM 35.6 °F 29.9 °F 26.6 °F 70% 29.86 in 10.0 mi WSW 6.9 mph 17.3 mph N/A   Overcast
5:53 PM 35.1 °F 26.4 °F 27.0 °F 72% 29.89 in 10.0 mi WSW 12.7 mph - 0.00 in   Overcast
6:01 PM 35.6 °F 28.6 °F 26.6 °F 70% 29.86 in 10.0 mi WSW 9.2 mph - N/A   Overcast
6:53 PM 35.1 °F 29.3 °F 26.1 °F 70% 29.91 in 9.0 mi SW 6.9 mph - N/A   Overcast
7:53 PM 34.0 °F 26.6 °F 27.0 °F 75% 29.94 in 9.0 mi West 9.2 mph - N/A   Overcast
8:25 PM 33.8 °F 27.0 °F 24.8 °F 70% 29.91 in 10.0 mi WSW 8.1 mph - N/A   Overcast
8:53 PM 34.0 °F 25.5 °F 25.0 °F 70% 29.94 in 10.0 mi WSW 11.5 mph - N/A   Overcast
9:53 PM 34.0 °F 26.6 °F 24.1 °F 67% 29.96 in 10.0 mi WSW 9.2 mph - N/A   Overcast
10:31 PM 33.8 °F 25.3 °F 24.8 °F 70% 29.93 in 8.0 mi West 11.5 mph - N/A   Overcast
10:53 PM 32.0 °F 22.1 °F 26.1 °F 79% 29.97 in 4.0 mi West 13.8 mph - 0.00 in Snow Light Snow
11:38 PM 32.0 °F 27.5 °F 24.8 °F 75% 29.92 in 8.0 mi SW 4.6 mph - 0.00 in   Overcast
11:53 PM 30.9 °F - 24.1 °F 76% 29.96 in 10.0 mi Calm Calm - 0.00 in   Overcast